[[{"header":{"parameterUnit":"m.s-1","parameterCategory":1,"la1":30.2991,"la2":30.254,"lo1":-89.0895,"lo2":-89.0444,"dy":0.0017,"dx":0.0017,"nx":28,"ny":28,"refTime":"2024-06-02T09:00:00:Z","depth":0,"parameterNumber":2,"parameterNumberName":"U-component_of_WINDS"},"data":[0,0,0,0,0,0,0,0,0,0,0,0,0,0,0,0,0,0,0,0,0,0,0,0,0,0,0,0,0,0,0,0,0,0,0,0,0,0,0,0,0,0,0,0,0,0,0,0,0,0,0,0,0,0,0,0,0,0,-1.4126,-1.4127,0,-1.4188,-1.4189,-1.419,-1.4208,-1.4207,-1.4207,-1.4207,-1.4273,-1.4275,-1.4277,0,0,0,0,0,0,0,0,0,0,0,0,0,-1.4025,-1.4027,-1.4126,-1.4127,-1.4127,-1.4188,-1.4189,-1.419,-1.4208,-1.4207,-1.4207,-1.4207,-1.4272,-1.4274,-1.4277,0,0,0,0,0,0,0,0,0,0,0,0,0,-1.4077,-1.4028,-1.4126,-1.4144,-1.4146,-1.4188,-1.4189,-1.419,-1.4208,-1.4207,-1.4207,-1.4206,-1.4271,-1.4274,-1.4277,-1.4307,0,0,-1.4287,-1.4288,0,0,0,0,0,0,0,0,-1.4074,-1.408,-1.414,-1.4142,-1.4145,-1.419,-1.4178,-1.4229,-1.4208,-1.4184,-1.4207,-1.4206,-1.4246,-1.4251,-1.4264,-1.431,-1.4313,-1.4287,-1.4289,-1.429,-1.4291,0,0,0,0,0,0,0,-1.407,-1.4078,-1.4151,-1.4141,-1.4144,-1.415,-1.4156,-1.4188,-1.4217,-1.4186,-1.4188,-1.4195,-1.4247,-1.4261,-1.4265,-1.4314,-1.4287,-1.429,-1.4292,-1.4293,-1.4388,-1.4389,0,0,0,0,0,0,-1.4063,-1.4075,-1.4149,-1.4152,-1.4107,-1.4152,-1.4159,-1.4176,-1.4217,-1.4223,-1.4195,-1.4195,-1.4256,-1.4262,-1.4268,-1.4305,-1.429,-1.4293,-1.4295,-1.4388,-1.4388,-1.4389,0,0,0,0,0,0,-1.4061,-1.407,-1.4146,-1.4114,-1.4124,-1.4154,-1.4172,-1.4177,-1.4191,-1.4223,-1.4229,-1.4204,-1.4255,-1.4263,-1.4297,-1.4308,-1.4295,-1.4297,-1.4387,-1.4388,-1.4389,-1.438,0,0,0,0,0,0,-1.4058,-1.4069,-1.4079,-1.4114,-1.4126,-1.4173,-1.4173,-1.4179,-1.4196,-1.4197,-1.4233,-1.4238,-1.4256,-1.4292,-1.43,-1.4312,-1.43,-1.4386,-1.4387,-1.4388,-1.438,-1.4381,-1.4382,0,0,0,0,0,-1.4054,-1.4075,-1.408,-1.4089,-1.414,-1.4174,-1.4181,-1.4199,-1.4197,-1.4208,-1.4229,-1.4237,-1.4305,-1.4295,-1.4304,-1.4317,-1.4385,-1.4387,-1.4388,-1.4379,-1.4381,-1.4382,0,0,0,0,0,0,-1.4041,-1.408,-1.4085,-1.4118,-1.4142,-1.4177,-1.4192,-1.42,-1.4227,-1.4226,-1.4249,-1.4257,-1.4289,-1.4307,-1.4295,-1.4349,-1.4346,-1.4349,-1.4336,-1.4337,-1.4338,-1.4333,-1.4302,0,0,0,0,0,-1.4042,-1.4065,-1.4098,-1.4124,-1.4136,-1.4161,-1.4177,-1.4189,-1.4216,-1.4227,-1.425,-1.4277,-1.4304,-1.4322,-1.4349,-1.4383,-1.4391,-1.4396,-1.4397,-1.4398,-1.44,-1.442,-1.4423,-1.4394,-1.4394,-1.4394,0,0,-1.4044,-1.4068,-1.4081,-1.4121,-1.4142,-1.4167,-1.417,-1.4196,-1.4215,-1.4231,-1.4264,-1.4282,-1.4314,-1.4347,-1.4364,-1.4363,-1.441,-1.44,-1.44,-1.4402,-1.4422,-1.4425,-1.4427,-1.4395,-1.4395,-1.4395,0,0,-1.406,-1.408,-1.4104,-1.4124,-1.4155,-1.4172,-1.4178,-1.4212,-1.4224,-1.4257,-1.427,-1.4294,-1.434,-1.4362,-1.4379,-1.4405,-1.4413,-1.4413,-1.4419,-1.4438,-1.444,-1.4442,-1.4452,-1.4455,-1.4416,-1.4416,-1.4416,0,-1.4058,-1.4096,-1.4115,-1.414,-1.4158,-1.4173,-1.4198,-1.4217,-1.4256,-1.4268,-1.4267,-1.4326,-1.4348,-1.4388,-1.4394,-1.4407,-1.4415,-1.4409,-1.4438,-1.4441,-1.4443,-1.4452,-1.4456,-1.4416,-1.4416,-1.4416,-1.4416,0,-1.4093,-1.4118,-1.4134,-1.417,-1.419,-1.4215,-1.4239,-1.4256,-1.4267,-1.4285,-1.432,-1.4347,-1.438,-1.439,-1.4401,-1.4432,-1.4431,-1.4433,-1.4431,-1.4445,-1.4454,-1.4458,-1.4415,-1.4415,-1.4416,-1.4416,0,0,-1.4102,-1.4148,-1.4154,-1.4171,-1.4206,-1.4227,-1.4253,-1.4285,-1.43,-1.4327,-1.435,-1.4389,-1.4393,-1.4412,-1.4426,-1.4443,-1.4462,-1.4444,-1.4445,-1.4447,-1.4498,-1.4495,-1.4499,-1.4468,-1.4469,-1.447,-1.4496,0,-1.4122,-1.4169,-1.4187,-1.4225,-1.425,-1.4265,-1.4288,-1.4313,-1.4331,-1.4355,-1.4375,-1.4403,-1.4405,-1.4417,-1.4434,-1.4456,-1.4473,-1.4455,-1.4491,-1.4492,-1.4482,-1.4504,-1.4501,-1.4524,-1.4499,-1.45,-1.45,0,-1.4152,-1.4178,-1.4219,-1.4252,-1.4263,-1.4283,-1.4314,-1.4337,-1.4366,-1.4378,-1.44,-1.4414,-1.4443,-1.4439,-1.448,-1.4467,-1.4484,-1.4497,-1.4498,-1.4502,-1.4497,-1.4509,-1.4532,-1.4535,-1.4506,-1.4506,-1.4505,0,-1.4155,-1.42,-1.4231,-1.4245,-1.4284,-1.4298,-1.4315,-1.4344,-1.4362,-1.439,-1.4402,-1.4433,-1.445,-1.4474,-1.4496,-1.4491,-1.4536,-1.4533,-1.4547,-1.4546,-1.4555,-1.4554,-1.4581,-1.4566,-1.4566,-1.4566,-1.4565,0,-1.4176,-1.42,-1.4232,-1.4251,-1.4279,-1.43,-1.4328,-1.4346,-1.4372,-1.4395,-1.4411,-1.4433,-1.446,-1.4485,-1.4503,-1.4535,-1.4542,-1.4553,-1.4558,-1.4552,-1.455,-1.4563,-1.4562,-1.4567,-1.4566,-1.4566,-1.4566,0,-1.4184,-1.4206,-1.424,-1.4275,-1.4284,-1.4303,-1.4333,-1.4353,-1.4371,-1.44,-1.4409,-1.4438,-1.4469,-1.4493,-1.4534,-1.4546,-1.458,-1.4584,-1.4569,-1.4571,-1.4584,-1.4582,-1.462,-1.4626,-1.4606,-1.4606,-1.4606,0,-1.4196,-1.4215,-1.4251,-1.4267,-1.4284,-1.4311,-1.4329,-1.4352,-1.4371,-1.4406,-1.4421,-1.4453,-1.448,-1.4529,-1.4555,-1.4586,-1.4592,-1.4603,-1.4597,-1.459,-1.4592,-1.4591,-1.4593,-1.4603,-1.4603,-1.4604,-1.4604,0,-1.4215,-1.4225,-1.425,-1.428,-1.4302,-1.4327,-1.4352,-1.4365,-1.4392,-1.4413,-1.4444,-1.4465,-1.4506,-1.4538,-1.4572,-1.4592,-1.4603,-1.4605,-1.461,-1.4604,-1.4595,-1.4601,-1.4571,-1.4604,-1.4604,-1.4604,-1.4604,-1.4604,-1.4225,-1.4243,-1.4271,-1.43,-1.4321,-1.4344,-1.4364,-1.4385,-1.4412,-1.4446,-1.4459,-1.4491,-1.4521,-1.4568,-1.4588,-1.4614,-1.4615,-1.4622,-1.4624,-1.4625,-1.4624,-1.4591,-1.4621,-1.4621,-1.4621,-1.4621,-1.4621,0,-1.4245,-1.4264,-1.429,-1.4325,-1.4347,-1.4355,-1.4384,-1.4402,-1.443,-1.4457,-1.4483,-1.452,-1.4551,-1.4579,-1.4612,-1.4628,-1.4634,-1.4636,-1.4635,-1.4639,-1.4622,-1.4614,-1.4631,-1.4631,-1.4631,-1.4631,-1.4631,-1.4631,-1.4258,-1.4289,-1.4302,-1.4344,-1.4363,-1.4395,-1.441,-1.4433,-1.4454,-1.4494,-1.452,-1.4538,-1.4566,-1.4601,-1.463,-1.4638,-1.4649,-1.465,-1.4659,-1.4642,-1.4641,-1.4639,-1.4632,-1.4652,-1.4652,-1.4674,-1.4674,-1.4675]},{"header":{"parameterUnit":"m.s-1","parameterCategory":1,"la1":30.2991,"la2":30.254,"lo1":-89.0895,"lo2":-89.0444,"dy":0.0017,"dx":0.0017,"nx":28,"ny":28,"refTime":"2024-06-02T09:00:00:Z","depth":0,"parameterNumber":3,"parameterNumberName":"V-component_of_WINDS"},"data":[0,0,0,0,0,0,0,0,0,0,0,0,0,0,0,0,0,0,0,0,0,0,0,0,0,0,0,0,0,0,0,0,0,0,0,0,0,0,0,0,0,0,0,0,0,0,0,0,0,0,0,0,0,0,0,0,0,0,3.9422,3.9422,0,3.9414,3.9414,3.9414,3.935,3.9348,3.9347,3.9345,3.9338,3.9339,3.934,0,0,0,0,0,0,0,0,0,0,0,0,0,3.938,3.9381,3.9422,3.9422,3.9422,3.9414,3.9414,3.9414,3.935,3.9348,3.9346,3.9345,3.9337,3.9339,3.934,0,0,0,0,0,0,0,0,0,0,0,0,0,3.9388,3.9382,3.9422,3.9389,3.9386,3.9414,3.9414,3.9414,3.9351,3.9348,3.9346,3.9344,3.9337,3.9339,3.9341,3.94,0,0,3.9347,3.9347,0,0,0,0,0,0,0,0,3.9388,3.939,3.9394,3.9391,3.9388,3.9381,3.9397,3.9409,3.9351,3.9364,3.9345,3.9342,3.9354,3.9354,3.9358,3.94,3.9399,3.9347,3.9348,3.9349,3.9349,0,0,0,0,0,0,0,3.9387,3.939,3.9419,3.9394,3.939,3.9374,3.9373,3.9399,3.9372,3.9363,3.9358,3.9358,3.9352,3.9356,3.9357,3.9399,3.9347,3.9348,3.935,3.935,3.9487,3.9489,0,0,0,0,0,0,3.9391,3.939,3.9419,3.9418,3.9382,3.9377,3.9375,3.9385,3.9372,3.9368,3.936,3.9355,3.9354,3.9355,3.9357,3.9424,3.9349,3.935,3.9352,3.9485,3.9488,3.949,0,0,0,0,0,0,3.9391,3.9395,3.9419,3.9403,3.9405,3.938,3.9392,3.9386,3.9391,3.937,3.9365,3.937,3.9353,3.9354,3.9389,3.9423,3.9351,3.9353,3.9482,3.9486,3.9489,3.9559,0,0,0,0,0,0,3.939,3.9395,3.9417,3.9404,3.9406,3.9452,3.9394,3.9388,3.9394,3.9388,3.9378,3.9374,3.9351,3.9387,3.9391,3.9424,3.9355,3.9479,3.9483,3.9488,3.9554,3.9565,3.9574,0,0,0,0,0,3.9389,3.9438,3.9419,3.9423,3.9434,3.9454,3.9455,3.9428,3.9397,3.9419,3.9406,3.9374,3.9419,3.9391,3.9395,3.9429,3.9476,3.9482,3.9487,3.9549,3.9563,3.9574,0,0,0,0,0,0,3.9457,3.9436,3.9414,3.9461,3.946,3.9443,3.947,3.9444,3.9451,3.9445,3.9411,3.9409,3.9449,3.9443,3.9412,3.9485,3.9442,3.9449,3.9487,3.95,3.951,3.951,3.9356,0,0,0,0,0,3.9477,3.9496,3.9476,3.9519,3.952,3.9496,3.9504,3.9482,3.948,3.9479,3.9468,3.9467,3.948,3.949,3.9502,3.9553,3.9549,3.9579,3.9589,3.9598,3.9603,3.9628,3.964,3.9509,3.9509,3.9508,0,0,3.952,3.951,3.9524,3.9533,3.9529,3.9549,3.9496,3.9519,3.9533,3.9483,3.9514,3.9507,3.9503,3.9546,3.9564,3.9542,3.9639,3.9605,3.9612,3.9613,3.9635,3.9647,3.9659,3.9512,3.9512,3.9511,0,0,3.9606,3.9602,3.9636,3.9634,3.9629,3.9612,3.9621,3.9608,3.9601,3.9632,3.9594,3.9611,3.9635,3.9633,3.9636,3.9721,3.9691,3.9726,3.9779,3.9804,3.9814,3.9823,3.9851,3.9862,3.9732,3.9732,3.9732,0,3.9659,3.9687,3.9657,3.9682,3.9686,3.9642,3.9676,3.9675,3.9675,3.9678,3.9654,3.9682,3.9677,3.9718,3.9738,3.9743,3.975,3.9726,3.9815,3.9824,3.9832,3.9858,3.9869,3.9736,3.9736,3.9735,3.9735,0,3.9752,3.9772,3.98,3.9799,3.9807,3.9837,3.981,3.9822,3.98,3.9786,3.9817,3.9809,3.9818,3.9826,3.9806,3.9864,3.985,3.9821,3.9776,3.9849,3.9873,3.9883,3.9742,3.974,3.9739,3.9738,0,0,3.9881,3.9863,3.9873,3.9872,3.9863,3.9877,3.9905,3.9912,3.9922,3.9923,3.9944,3.9965,3.9938,3.9941,3.9919,3.9941,4.0007,3.9909,3.9908,3.9926,4.0068,4.0089,4.0101,3.9988,3.999,3.9991,4.0068,0,3.9962,4.0007,3.998,4.0029,4.0045,4.0003,4.0026,4.0023,4.0011,4.0023,4.0009,4.0024,3.9988,3.9989,4.0009,3.9995,4.0035,3.9989,4.0006,4.0007,4.0006,4.0114,4.0137,4.0209,4.0077,4.0079,4.008,0,4.0063,4.0068,4.0118,4.0104,4.011,4.0131,4.0135,4.0148,4.0143,4.0132,4.0135,4.0108,4.0133,4.0091,4.0124,4.0093,4.0099,4.0093,4.0095,4.0094,4.0047,4.0115,4.0232,4.0243,4.0095,4.0094,4.0093,0,4.015,4.0169,4.02,4.02,4.0186,4.0201,4.0196,4.0189,4.0195,4.0198,4.0201,4.0208,4.0212,4.0218,4.0193,4.0165,4.0229,4.0185,4.022,4.022,4.0234,4.0233,4.0352,4.0241,4.0241,4.024,4.024,0,4.0243,4.0274,4.0238,4.0258,4.0291,4.026,4.0295,4.0285,4.0279,4.0295,4.026,4.0276,4.0243,4.0256,4.0237,4.0267,4.0269,4.026,4.0255,4.0262,4.0263,4.0264,4.0258,4.0243,4.0243,4.0242,4.0242,0,4.0344,4.0322,4.0353,4.0336,4.0332,4.0358,4.0343,4.036,4.0345,4.0366,4.0369,4.0346,4.0358,4.0335,4.0345,4.0333,4.0373,4.0361,4.0374,4.037,4.0405,4.0402,4.0528,4.0542,4.0424,4.0425,4.0426,0,4.0404,4.0427,4.0412,4.042,4.0416,4.043,4.0435,4.0406,4.0413,4.0408,4.0426,4.0436,4.0442,4.0464,4.0448,4.0455,4.0441,4.0485,4.0442,4.0449,4.044,4.0438,4.0439,4.0493,4.0495,4.0496,4.0497,0,4.0512,4.0499,4.0508,4.0512,4.0519,4.0522,4.0521,4.053,4.0499,4.0508,4.052,4.0525,4.0535,4.0545,4.0548,4.0542,4.0514,4.0511,4.0519,4.0526,4.0532,4.0528,4.0396,4.0508,4.0507,4.0506,4.0505,4.0505,4.0593,4.061,4.0602,4.0612,4.0609,4.0609,4.0624,4.061,4.062,4.0625,4.0607,4.0623,4.0617,4.0618,4.0615,4.0627,4.0608,4.062,4.0623,4.0626,4.0631,4.0532,4.0628,4.0628,4.0628,4.0627,4.0627,0,4.0697,4.0689,4.0699,4.0699,4.0707,4.068,4.0678,4.0686,4.0701,4.0697,4.0703,4.0717,4.0726,4.0711,4.0717,4.0729,4.0717,4.0732,4.073,4.0729,4.0649,4.064,4.0742,4.0742,4.0742,4.0742,4.0742,4.0742,4.0752,4.0779,4.0766,4.0791,4.0783,4.0798,4.0799,4.0799,4.0795,4.0812,4.0819,4.0808,4.08,4.0805,4.0812,4.0807,4.081,4.083,4.082,4.0746,4.0734,4.0724,4.0715,4.0831,4.0831,4.0899,4.0899,4.09]}]]